| time (UTC) | temp C | wind direction | speed KPH | gust KPH | rain 1hr cm | rain 24hr cm | rain mn cm | humidity % | barometer mb |
| 20260906003637 | 30 | 32 | 1.6 | 9.7 | 0.00 | 0.00 | 0.00 | 23 | 1017.6 |
| 20260906002737 | 30 | 33 | 1.6 | 9.7 | 0.00 | 0.00 | 0.00 | 23 | 1017.6 |
| 20260906001816 | 31 | 32 | 1.6 | 9.7 | 0.00 | 0.00 | 0.00 | 23 | 1017.6 |
| 20260906000937 | 31 | 26 | 1.6 | 8.0 | 0.00 | 0.00 | 0.00 | 22 | 1017.6 |
| 20260906000016 | 32 | 23 | 0.0 | 8.0 | 0.00 | 0.00 | 0.00 | 21 | 1017.6 |
| 20260905235437 | 32 | 24 | 1.6 | 8.0 | 0.00 | 0.00 | 0.00 | 21 | 1017.6 |
| 20260905234516 | 32 | 19 | 3.2 | 11.3 | 0.00 | 0.00 | 0.00 | 21 | 1017.6 |
| 20260905233616 | 32 | 19 | 3.2 | 14.5 | 0.00 | 0.00 | 0.00 | 20 | 1017.6 |
| 20260905232716 | 33 | 37 | 0.0 | 6.4 | 0.00 | 0.00 | 0.00 | 20 | 1017.6 |
| 20260905231816 | 32 | 43 | 1.6 | 9.7 | 0.00 | 0.00 | 0.00 | 20 | 1017.6 |
| 20260905230916 | 32 | 4 | 1.6 | 9.7 | 0.00 | 0.00 | 0.00 | 20 | 1017.6 |
| 20260905230016 | 32 | 7 | 3.2 | 14.5 | 0.00 | 0.00 | 0.00 | 21 | 1017.6 |
| 20260905225416 | 32 | 19 | 4.8 | 16.1 | 0.00 | 0.00 | 0.00 | 21 | 1017.6 |
| 20260905224537 | 32 | 48 | 4.8 | 16.1 | 0.00 | 0.00 | 0.00 | 22 | 1017.6 |
| 20260905223616 | 32 | 41 | 1.6 | 9.7 | 0.00 | 0.00 | 0.00 | 21 | 1017.6 |
| 20260905222737 | 32 | 36 | 4.8 | 14.5 | 0.00 | 0.00 | 0.00 | 21 | 1017.6 |
| 20260905221816 | 32 | 17 | 6.4 | 14.5 | 0.00 | 0.00 | 0.00 | 23 | 1017.6 |
| 20260905220916 | 32 | 23 | 4.8 | 14.5 | 0.00 | 0.00 | 0.00 | 22 | 1017.6 |
| 20260905220016 | 32 | 33 | 8.0 | 17.7 | 0.00 | 0.00 | 0.00 | 22 | 1017.6 |
| 20260905215416 | 32 | 24 | 6.4 | 17.7 | 0.00 | 0.00 | 0.00 | 22 | 1017.6 |
| 20260905214516 | 32 | 27 | 4.8 | 11.3 | 0.00 | 0.00 | 0.00 | 21 | 1017.6 |
| 20260905213616 | 32 | 17 | 6.4 | 17.7 | 0.00 | 0.00 | 0.00 | 22 | 1017.6 |
| 20260905212716 | 32 | 13 | 8.0 | 17.7 | 0.00 | 0.00 | 0.00 | 22 | 1017.6 |
| 20260905211816 | 32 | 28 | 4.8 | 16.1 | 0.00 | 0.00 | 0.00 | 22 | 1017.6 |
| 20260905210916 | 32 | 14 | 6.4 | 17.7 | 0.00 | 0.00 | 0.00 | 22 | 1017.6 |
| 20260905210037 | 32 | 20 | 4.8 | 14.5 | 0.00 | 0.00 | 0.00 | 22 | 1017.6 |
| 20260905205416 | 31 | 33 | 6.4 | 16.1 | 0.00 | 0.00 | 0.00 | 23 | 1017.6 |
| 20260905204516 | 32 | 19 | 6.4 | 19.3 | 0.00 | 0.00 | 0.00 | 23 | 1017.6 |
| 20260905203616 | 32 | 24 | 8.0 | 19.3 | 0.00 | 0.00 | 0.00 | 23 | 1017.6 |
| 20260905202716 | 31 | 15 | 6.4 | 17.7 | 0.00 | 0.00 | 0.00 | 24 | 1017.6 |
| 20260905201816 | 31 | 18 | 8.0 | 17.7 | 0.00 | 0.00 | 0.00 | 24 | 1017.6 |
| 20260905200916 | 31 | 8 | 4.8 | 12.9 | 0.00 | 0.00 | 0.00 | 25 | 1017.6 |
| 20260905200016 | 31 | 351 | 4.8 | 14.5 | 0.00 | 0.00 | 0.00 | 23 | 1017.6 |
| 20260905195416 | 31 | 332 | 6.4 | 14.5 | 0.00 | 0.00 | 0.00 | 23 | 1017.6 |
| 20260905194516 | 31 | 25 | 6.4 | 16.1 | 0.00 | 0.00 | 0.00 | 24 | 1017.6 |
| 20260905193616 | 30 | 15 | 4.8 | 16.1 | 0.00 | 0.00 | 0.00 | 25 | 1017.6 |
| 20260905192737 | 30 | 38 | 3.2 | 14.5 | 0.00 | 0.00 | 0.00 | 24 | 1017.6 |
| 20260905191816 | 30 | 26 | 4.8 | 16.1 | 0.00 | 0.00 | 0.00 | 25 | 1017.6 |
| 20260905190916 | 30 | 16 | 4.8 | 16.1 | 0.00 | 0.00 | 0.00 | 24 | 1017.6 |
| 20260905190016 | 30 | 10 | 4.8 | 19.3 | 0.00 | 0.00 | 0.00 | 23 | 1017.6 |
| 20260905185437 | 30 | 10 | 6.4 | 19.3 | 0.00 | 0.00 | 0.00 | 24 | 1017.6 |
| 20260905184516 | 30 | 17 | 6.4 | 16.1 | 0.00 | 0.00 | 0.00 | 25 | 1017.6 |
| 20260905183616 | 30 | 16 | 4.8 | 16.1 | 0.00 | 0.00 | 0.00 | 24 | 1017.6 |
| 20260905182716 | 30 | 11 | 6.4 | 16.1 | 0.00 | 0.00 | 0.00 | 24 | 1017.6 |
| 20260905181816 | 30 | 10 | 4.8 | 14.5 | 0.00 | 0.00 | 0.00 | 25 | 1017.6 |
| 20260905180916 | 29 | 350 | 4.8 | 16.1 | 0.00 | 0.00 | 0.00 | 24 | 1017.6 |
| 20260905180016 | 29 | 5 | 3.2 | 16.1 | 0.00 | 0.00 | 0.00 | 24 | 1017.6 |
| 20260905175416 | 29 | 344 | 1.6 | 11.3 | 0.00 | 0.00 | 0.00 | 25 | 1017.6 |
| 20260905174516 | 28 | 346 | 1.6 | 12.9 | 0.00 | 0.00 | 0.00 | 26 | 1017.6 |
| 20260905173616 | 28 | 341 | 3.2 | 8.0 | 0.00 | 0.00 | 0.00 | 28 | 1017.6 |
| 20260905172737 | 27 | 315 | 3.2 | 16.1 | 0.00 | 0.00 | 0.00 | 29 | 1017.6 |
| 20260905171816 | 27 | 17 | 3.2 | 14.5 | 0.00 | 0.00 | 0.00 | 30 | 1017.6 |
| 20260905170916 | 28 | 54 | 1.6 | 11.3 | 0.00 | 0.00 | 0.00 | 30 | 1017.6 |
| 20260905170016 | 28 | 56 | 0.0 | 6.4 | 0.00 | 0.00 | 0.00 | 30 | 1017.6 |
| 20260905165416 | 28 | 56 | 0.0 | 4.8 | 0.00 | 0.00 | 0.00 | 30 | 1017.6 |
| 20260905164516 | 27 | 56 | 1.6 | 8.0 | 0.00 | 0.00 | 0.00 | 32 | 1017.6 |
| 20260905163616 | 26 | 57 | 1.6 | 9.7 | 0.00 | 0.00 | 0.00 | 35 | 1017.6 |
| 20260905162737 | 26 | 57 | 1.6 | 9.7 | 0.00 | 0.00 | 0.00 | 34 | 1017.6 |
| 20260905161837 | 25 | 0 | 0.0 | 0.0 | 0.00 | 0.00 | 0.00 | 33 | 1017.6 |
| 20260905160916 | 25 | 58 | 0.0 | 4.8 | 0.00 | 0.00 | 0.00 | 33 | 1017.6 |
| 20260905160016 | 25 | 0 | 0.0 | 0.0 | 0.00 | 0.00 | 0.00 | 34 | 1017.6 |
| 20260905155416 | 25 | 0 | 0.0 | 0.0 | 0.00 | 0.00 | 0.00 | 34 | 1017.6 |
| 20260905154516 | 23 | 0 | 0.0 | 0.0 | 0.00 | 0.00 | 0.00 | 39 | 1017.6 |
| 20260905153616 | 22 | 68 | 0.0 | 8.0 | 0.00 | 0.00 | 0.00 | 42 | 1017.6 |
| 20260905152716 | 21 | 68 | 1.6 | 8.0 | 0.00 | 0.00 | 0.00 | 44 | 1017.6 |
| 20260905151816 | 21 | 68 | 0.0 | 4.8 | 0.00 | 0.00 | 0.00 | 41 | 1017.6 |
| 20260905150916 | 21 | 48 | 0.0 | 3.2 | 0.00 | 0.00 | 0.00 | 40 | 1017.6 |
| 20260905150016 | 21 | 40 | 1.6 | 8.0 | 0.00 | 0.00 | 0.00 | 41 | 1017.6 |
| 20260905145416 | 21 | 253 | 0.0 | 3.2 | 0.00 | 0.00 | 0.00 | 41 | 1017.6 |
| 20260905144516 | 21 | 249 | 0.0 | 4.8 | 0.00 | 0.00 | 0.00 | 40 | 1017.6 |
| 20260905143616 | 20 | 0 | 0.0 | 0.0 | 0.00 | 0.00 | 0.00 | 40 | 1017.6 |
| 20260905142716 | 20 | 0 | 0.0 | 0.0 | 0.00 | 0.00 | 0.00 | 43 | 1017.6 |
| 20260905141837 | 19 | 271 | 0.0 | 6.4 | 0.00 | 0.00 | 0.00 | 44 | 1017.6 |
| 20260905140916 | 18 | 271 | 1.6 | 6.4 | 0.00 | 0.00 | 0.00 | 44 | 1017.6 |
| 20260905140037 | 18 | 0 | 0.0 | 1.6 | 0.00 | 0.00 | 0.00 | 44 | 1017.6 |
| 20260905135416 | 18 | 0 | 0.0 | 0.0 | 0.00 | 0.00 | 0.00 | 45 | 1017.6 |
| 20260905134516 | 18 | 271 | 0.0 | 4.8 | 0.00 | 0.00 | 0.00 | 44 | 1017.6 |
| 20260905133616 | 18 | 271 | 0.0 | 4.8 | 0.00 | 0.00 | 0.00 | 44 | 1017.6 |
| 20260905132716 | 18 | 0 | 0.0 | 0.0 | 0.00 | 0.00 | 0.00 | 45 | 1017.6 |
| 20260905131837 | 18 | 0 | 0.0 | 0.0 | 0.00 | 0.00 | 0.00 | 46 | 1017.6 |
| 20260905130916 | 18 | 236 | 0.0 | 4.8 | 0.00 | 0.00 | 0.00 | 45 | 1017.6 |
| 20260905130016 | 17 | 99 | 0.0 | 4.8 | 0.00 | 0.00 | 0.00 | 47 | 1017.6 |
| 20260905125416 | 17 | 84 | 0.0 | 1.6 | 0.00 | 0.00 | 0.00 | 48 | 1017.6 |
| 20260905124516 | 17 | 0 | 0.0 | 0.0 | 0.00 | 0.00 | 0.00 | 48 | 1017.6 |
| 20260905123616 | 16 | 0 | 0.0 | 0.0 | 0.00 | 0.00 | 0.00 | 50 | 1017.6 |
| 20260905122737 | 17 | 84 | 0.0 | 1.6 | 0.00 | 0.00 | 0.00 | 49 | 1017.6 |
| 20260905121816 | 17 | 84 | 0.0 | 3.2 | 0.00 | 0.00 | 0.00 | 48 | 1017.6 |
| 20260905120917 | 17 | 84 | 0.0 | 1.6 | 0.00 | 0.00 | 0.00 | 46 | 1017.6 |
| 20260905005411 | 30 | 205 | 6.4 | 17.7 | 0.00 | 0.00 | 0.00 | 20 | 1016.5 |
| 20260905004511 | 30 | 205 | 4.8 | 19.3 | 0.00 | 0.00 | 0.00 | 19 | 1016.5 |